163P/NEAT (2019)

Japanese version
Home page
Updated on November 3, 2020

---------------------------------------------------------------------

* Profile

* Orbital Elements

Epoch 2019 Aug. 25.0 TT = JDT 2458720.5                                         
T 2019 Aug. 5.23659 TT                                  Rudenko                 
q   2.0666267            (2000.0)            P               Q                  
n   0.13458075     Peri.  349.69961     -0.03553851     -0.97594542             
a   3.7712104      Node   102.09150     +0.93183829     -0.11013718             
e   0.4519991      Incl.   12.70782     +0.36112936     +0.18814976             
P   7.32                                                                        
From 322 observations 1990 Oct. 24-2012 Jan. 20, mean residual 0".6.            

* Magnitudes Graph

        m1 = 15.0 + 5 log d + 10.0 log r

---------------------------------------------------------------------

The orbital elements are published on M.P.E.C. 2020-H235.
The magnitudes graphs are made with Comet for Windows.

---------------------------------------------------------------------

Copyright(C) Seiichi Yoshida (comet@aerith.net). All rights reserved.